Location: Bieg
(49.3499°N, 10.3835°E)
Time: 20:40:07
(UTC+00:00)

Cosmos 1400 Rocket - Pass Details

Date: 23 May 2024
Orbit: 501 x 544 km, 81.1° (Epoch: 22 June)

Event Time Altitude Azimuth Distance (km) Brightness Sun altitude
Exits shadow 00:33:29 31° 246° (WSW) 982 3.7 -17.9°
Maximum altitude 00:34:44 40° 288° (WNW) 821 3.6 -17.8°
Drops below altitude 10° 00:38:31 10° 358° (N) 1,817 6.5 -17.6°
Sets 00:40:47 0° 7° (N) 2,709 7.9 -17.5°
